Fort Knox, KY

10:12 AM EDT on March 24, 2017 (GMT -0400)
Godman Army Air Field

Weather History for KFTK - September, 2013

Change the Weather History Date:

Wednesday, September 11, 2013

  Actual Average Record
Temperature  
Mean Temperature 78 °F -  
Max Temperature 88 °F 79 °F 88 °F (2013)
Min Temperature 69 °F 57 °F 50 °F (1998)
Cooling Degree Days 14    
Growing Degree Days 28 (Base 50)    
Moisture  
Dew Point 71 °F    
Average Humidity 84    
Maximum Humidity 98    
Minimum Humidity 61    
Precipitation  
Precipitation 0.01 in - - ()
Sea Level Pressure  
Sea Level Pressure 30.13 in    
Wind  
Wind Speed 4 mph (SSW)    
Max Wind Speed 20 mph    
Max Gust Speed 24 mph    
Visibility 10 miles    
Events      
Averages and records for this station are not official NWS values.
T = Trace of Precipitation, MM = Missing Value Source: NWS Daily Summary

Daily Weather History Graph

Daily Weather History Graph

Search for Another Location

Airport or City:

Trip Planner

Search our weather history database for the weather conditions in past years. The results will help you decide how hot, cold, wet, or windy it might be!

Date:

Astronomy

Sep. 11, 2013 Rise Set
Actual Time 7:22 AM EDT 7:57 PM EDT
Civil Twilight 6:56 AM EDT 8:24 PM EDT
Nautical Twilight 6:24 AM EDT 8:55 PM EDT
Astronomical Twilight 5:52 AM EDT 9:27 PM EDT
Moon 1:43 PM EDT (9/11) 11:59 PM EDT (9/11)
Length of Visible Light 13h 28m
Length of Day
12h 35m
Waxing Crescent, 38% of the Moon is Illuminated
Sep 11
Waxing Crescent
Sep 12
First Quarter
Sep 19
Full
Sep 26
Last Quarter
Oct 4
New

Hourly Weather History & Observations

Time (EDT) Temp. Heat Index Dew Point Humidity Pressure Visibility Wind Dir Wind Speed Gust Speed Precip Events Conditions
12:58 AM 72.5 °F - 70.3 °F 93% 30.14 in 10.0 mi SE 2.3 mph - N/A   Clear
1:58 AM 70.5 °F - 69.8 °F 98% 30.14 in 9.0 mi Calm Calm - N/A   Clear
2:58 AM 71.1 °F - 69.4 °F 95% 30.14 in 10.0 mi SSE 3.5 mph - N/A   Clear
3:58 AM 70.0 °F - 69.1 °F 97% 30.14 in 10.0 mi Calm Calm - N/A   Clear
4:58 AM 69.3 °F - 68.4 °F 97% 30.14 in 10.0 mi SSW 3.5 mph - N/A   Clear
5:58 AM 69.6 °F - 68.7 °F 97% 30.15 in 10.0 mi SSW 3.5 mph - N/A   Clear
6:58 AM 69.8 °F - 68.9 °F 97% 30.16 in 10.0 mi SSW 4.6 mph - N/A   Clear
7:58 AM 70.2 °F - 69.3 °F 97% 30.17 in 8.0 mi SSW 3.5 mph - 0.01 in   Clear
8:58 AM 73.0 °F - 71.1 °F 93% 30.19 in 10.0 mi South 4.6 mph - N/A   Scattered Clouds
9:58 AM 78.1 °F - 72.7 °F 83% 30.18 in 10.0 mi SSW 4.6 mph - N/A   Scattered Clouds
10:58 AM 81.1 °F 86.0 °F 72.9 °F 76% 30.18 in 10.0 mi SW 9.2 mph - N/A   Partly Cloudy
11:58 AM 81.3 °F 86.1 °F 72.9 °F 75% 30.17 in 10.0 mi West 5.8 mph - N/A   Partly Cloudy
12:58 PM 82.0 °F 87.2 °F 72.7 °F 73% 30.16 in 10.0 mi SW 5.8 mph - N/A   Partly Cloudy
1:58 PM 85.8 °F 93.8 °F 74.1 °F 68% 30.13 in 10.0 mi WSW 8.1 mph - N/A   Partly Cloudy
2:58 PM 83.7 °F 90.4 °F 73.6 °F 72% 30.11 in 10.0 mi NW 1.2 mph - N/A   Clear
3:58 PM 87.4 °F 94.4 °F 72.3 °F 61% 30.09 in 10.0 mi Variable 4.6 mph - N/A   Clear
4:58 PM 88.5 °F 96.8 °F 73.6 °F 61% 30.09 in 10.0 mi WSW 5.8 mph - N/A   Clear
5:58 PM 87.6 °F 97.1 °F 74.8 °F 66% 30.08 in 10.0 mi SSW 6.9 mph - N/A   Clear
6:58 PM 85.1 °F 92.9 °F 74.3 °F 70% 30.09 in 10.0 mi SSE 19.6 mph 24.2 mph N/A   Scattered Clouds
7:58 PM 78.1 °F - 71.2 °F 79% 30.09 in 10.0 mi South 5.8 mph - N/A   Clear
8:58 PM 75.0 °F - 71.2 °F 88% 30.08 in 10.0 mi SSW 4.6 mph - N/A   Scattered Clouds
9:58 PM 73.9 °F - 71.2 °F 91% 30.09 in 10.0 mi SSW 5.8 mph - N/A   Clear
10:58 PM 72.9 °F - 71.1 °F 94% 30.09 in 10.0 mi South 4.6 mph - N/A   Clear
11:58 PM 71.1 °F - 70.2 °F 97% 30.07 in 10.0 mi SSW 5.8 mph - N/A   Clear